Terug naar catalogus

STARLINK-3887

ActiefCommunicatieVLEO
NORAD 52484·PAYLOAD·🇺🇸 United States

Gelanceerd May 6, 2022 vanaf Cape Canaveral Space Force Station

Loading…

Volgende Passages (komende 24 uur)

TLE

VersSource: CelesTrak SupGP

Epoch: Sep 15, 2026, 02:51 UTC

1 52484C 22049AK  26258.11923611 -.00008148  00000+0 -23322-3 0  2582
2 52484  53.1580 278.7237 0001177  84.2969 315.4809 15.35390001    15

Volg STARLINK-3887 in realtime met AllMySat

Download on the App Store